Location: Unspecified
(0.0000°N, 0.0000°E)
Time: 15:16:26
(UTC+00:00)

Altair - Pass Details

Date: 30 October 2021
Orbit: 1502 x 1682 km, 47.2° (Epoch: 26 November)

Event Time Altitude Azimuth Distance (km) Brightness Sun altitude
Rises 10:42:28 0° 307° (NW) 4,878 9.9 69.4°
Reaches altitude 10° 10:45:43 10° 302° (WNW) 3,909 9.6 70.0°
Maximum altitude 10:55:17 49° 230° (SW) 2,080 9.1 71.6°
Drops below altitude 10° 11:04:57 10° 158° (SSE) 3,934 10.1 73.1°
Sets 11:08:17 0° 152° (SSE) 4,912 10.4 73.5°
